Weather History for Aspen, CO

Change the Weather History Date:

Friday, September 13, 2013

  Actual Average Record
Temperature  
Mean Temperature 59 °F 54 °F  
Max Temperature 68 °F 70 °F 82 °F (1990)
Min Temperature 50 °F 39 °F 28 °F (2003)
Degree Days  
Heating Degree Days 6 11  
Month to date heating degree days 42 113  
Since 1 July heating degree days 177 309  
Cooling Degree Days 0 0  
Month to date cooling degree days 9 0  
Year to date cooling degree days 69 39  
Growing Degree Days 8 (Base 50)    
Moisture  
Dew Point 48 °F    
Average Humidity 71    
Maximum Humidity 100    
Minimum Humidity 42    
Precipitation  
Precipitation 0.54 in 0.06 in 0.93 in (1993)
Month to date precipitation 1.40 0.72  
Year to date precipitation 11.36 12.18  
Sea Level Pressure  
Sea Level Pressure 29.95 in    
Wind  
Wind Speed 5 mph (South)    
Max Wind Speed 16 mph    
Max Gust Speed 22 mph    
Visibility 9 miles    
Events Rain    
T = Trace of Precipitation, MM = Missing Value Source: NWS Daily Summary

Daily Weather History Graph

Daily Weather History Graph

Search for Another Location

Airport:

Trip Planner

Search our weather history database for the weather conditions in past years. The results will help you decide how hot, cold, wet, or windy it might be!

Date:

Astronomy

Sep. 13, 2013 Rise Set
Actual Time 6:47 AM MDT 7:18 PM MDT
Civil Twilight 6:20 AM MDT 7:45 PM MDT
Nautical Twilight 5:48 AM MDT 8:17 PM MDT
Astronomical Twilight 5:15 AM MDT 8:49 PM MDT
Moon 3:09 PM MDT (9/13) 12:21 AM MDT (9/13)
Length of Visible Light 13h 25m
Length of Day
12h 31m
Waxing Gibbous, 62% of the Moon is Illuminated
Sep 13
Waxing Gibbous
Sep 19
Full
Sep 26
Last Quarter
Oct 4
New
Oct 11
First Quarter

Hourly Weather History & Observations

Time (MDT) Temp. Dew Point Humidity Pressure Visibility Wind Dir Wind Speed Gust Speed Precip Events Conditions
12:18 AM 51.8 °F 51.8 °F 100% 30.31 in 10.0 mi Calm Calm - 0.01 in Rain Light Rain
12:53 AM 52.0 °F 52.0 °F 100% 29.97 in 10.0 mi Calm Calm - 0.02 in Rain Light Rain
1:24 AM 51.8 °F 51.8 °F 100% 30.28 in 10.0 mi Calm Calm - 0.00 in Rain Light Rain
1:53 AM 52.0 °F 51.1 °F 97% 29.96 in 7.0 mi Calm Calm - 0.01 in Rain Light Rain
2:09 AM 51.8 °F 51.8 °F 100% 30.28 in 10.0 mi Calm Calm - 0.01 in Rain Light Rain
2:30 AM 51.8 °F 51.8 °F 100% 30.27 in 6.0 mi Calm Calm - 0.01 in Rain Light Rain
2:53 AM 51.1 °F 51.1 °F 100% 29.99 in 6.0 mi SE 3.5 mph - 0.04 in Rain Light Rain
3:53 AM 51.1 °F 51.1 °F 100% 29.97 in 5.0 mi Calm Calm - 0.08 in Rain Light Rain
4:42 AM 50.0 °F 50.0 °F 100% 30.25 in 7.0 mi South 3.5 mph - N/A Rain Light Rain
4:53 AM 51.1 °F 51.1 °F 100% 29.94 in 7.0 mi South 6.9 mph - N/A Rain Light Rain
5:53 AM 51.1 °F 50.0 °F 96% 29.93 in 10.0 mi SE 9.2 mph - 0.06 in Rain Light Rain
6:53 AM 51.1 °F 48.9 °F 92% 29.92 in 10.0 mi SE 6.9 mph - 0.05 in Rain Light Rain
7:53 AM 51.1 °F 48.0 °F 89% 29.95 in 10.0 mi Calm Calm - 0.05 in   Mostly Cloudy
8:53 AM 53.1 °F 50.0 °F 89% 29.95 in 10.0 mi North 4.6 mph - 0.04 in   Mostly Cloudy
9:53 AM 55.9 °F 48.9 °F 77% 29.92 in 10.0 mi Calm Calm - 0.05 in   Mostly Cloudy
10:53 AM 60.1 °F 50.0 °F 69% 29.90 in 10.0 mi Calm Calm - 0.04 in   Mostly Cloudy
11:53 AM 64.0 °F 48.0 °F 56% 29.87 in 10.0 mi Variable 5.8 mph - 0.03 in   Scattered Clouds
12:53 PM 64.0 °F 44.1 °F 48% 29.85 in 10.0 mi Calm Calm - 0.02 in   Mostly Cloudy
1:53 PM 66.0 °F 46.0 °F 48% 29.82 in 10.0 mi North 6.9 mph - 0.01 in   Mostly Cloudy
2:53 PM 66.0 °F 46.9 °F 50% 29.80 in 10.0 mi NNW 11.5 mph 17.3 mph N/A   Mostly Cloudy
3:53 PM 66.0 °F 46.9 °F 50% 29.79 in 10.0 mi Variable 4.6 mph - 0.00 in Rain Light Rain
4:53 PM 66.9 °F 43.0 °F 42% 29.77 in 10.0 mi West 4.6 mph - 0.00 in   Partly Cloudy
5:53 PM 66.0 °F 42.1 °F 42% 29.76 in 10.0 mi Calm Calm - N/A   Scattered Clouds
6:53 PM 63.0 °F 48.9 °F 60% 29.79 in 10.0 mi Calm Calm - N/A   Mostly Cloudy
7:53 PM 55.9 °F 48.0 °F 75% 29.84 in 10.0 mi SE 10.4 mph - 0.00 in   Overcast
8:53 PM 54.0 °F 46.9 °F 77% 29.85 in 10.0 mi SSW 9.2 mph - N/A   Mostly Cloudy
9:53 PM 51.1 °F 46.0 °F 83% 29.87 in 10.0 mi South 3.5 mph - N/A   Clear
10:53 PM 52.0 °F 45.0 °F 77% 29.85 in 10.0 mi South 4.6 mph - N/A   Overcast
11:53 PM 54.0 °F 44.1 °F 69% 29.82 in 10.0 mi SE 10.4 mph - N/A   Overcast